{"data":{"norad_id":61002,"epoch":"2026-09-20T16:32:25.831968Z","epoch_age_seconds":175668,"freshness":"STALE","line1":"1 61002U 24158N   26263.68918787 -.00000282  00000+0  25220-5 0  9990","line2":"2 61002  53.1589  39.8304 0000741  85.8305 274.2798 15.69708205118215","mean_motion":15.69708205,"eccentricity":7.41e-5,"inclination_deg":53.1589,"raan_deg":39.8304,"arg_perigee_deg":85.8305,"mean_anomaly_deg":274.2798,"bstar":2.522e-6,"rev_number":11821,"period_min":91.736795119829,"perigee_km":359.23261094306,"apogee_km":360.23116311211,"semimajor_km":6737.8688870276,"source":"CELESTRAK","updated_at":"2026-09-22T09:00:49.296986Z"}}